Location: Breungeshain
(50.5000°N, 9.2000°E)
Time: 08:43:50
(UTC+00:00)

ISS - Visible Passes

Search period start: 13 May 2021 00:00
Search period end: 23 May 2021 00:00
Orbit: 417 x 422 km, 51.6° (Epoch: 13 May)

Date Brightness Start Highest point End Pass type
(mag) Time Alt. Az. Time Alt. Az. Time Alt. Az.
13 May -3.6 00:05:02 52° WNW 00:05:42 72° N 00:09:05 10° E visible
13 May -3.9 01:39:14 10° WNW 01:42:37 85° SSW 01:46:01 10° ESE visible
13 May -3.5 23:18:38 65° NE 23:18:38 65° NE 23:21:38 10° ENE visible
14 May -3.7 00:51:47 10° WNW 00:55:10 82° NNE 00:58:34 10° E visible
14 May -3.2 02:28:42 10° W 02:31:50 35° SSW 02:34:57 10° SE visible
14 May -2.9 20:51:15 10° SSW 20:54:12 28° SSE 20:55:36 21° ESE visible
14 May -3.9 22:27:24 10° WSW 22:30:47 90° S 22:34:10 10° ENE visible
15 May -3.6 00:04:19 10° W 00:07:42 73° N 00:11:05 10° E visible
15 May -3.6 01:41:12 10° WNW 01:44:28 49° SSW 01:47:46 10° SE visible
15 May -2.4 20:04:23 10° SSW 20:06:55 20° SE 20:09:28 10° E visible
15 May -3.9 21:40:00 10° WSW 21:43:20 73° SSE 21:46:43 10° ENE visible
15 May -3.5 23:16:51 10° W 23:20:14 70° N 23:23:37 10° E visible
16 May -3.9 00:53:43 10° WNW 00:57:05 67° SSW 01:00:26 10° ESE visible
16 May -2.2 02:31:07 10° W 02:33:27 18° SW 02:35:48 10° S visible
16 May -3.7 20:52:39 10° SW 20:55:56 55° SSE 20:59:15 10° ENE visible
16 May -3.6 22:29:22 10° W 22:32:45 72° N 22:36:07 10° E visible
17 May -3.9 00:06:16 10° WNW 00:09:40 84° SSW 00:13:03 10° ESE visible
17 May -2.7 01:43:21 10° W 01:46:11 25° SW 01:49:01 10° SSE visible
17 May -3.3 20:05:24 10° SW 20:08:34 40° SSE 20:11:46 10° E visible
17 May -3.7 21:41:53 10° W 21:45:16 78° N 21:48:39 10° ENE visible
17 May -3.8 23:18:49 10° WNW 23:22:12 82° N 23:22:55 52° E visible
18 May -1.2 00:55:44 10° W 00:55:49 10° W 00:55:49 10° W visible
18 May -3.8 20:54:26 10° WSW 20:57:48 90° WNW 21:01:11 10° ENE visible
18 May -3.6 22:31:22 10° W 22:34:44 73° N 22:36:31 26° E visible
19 May -1.9 00:08:13 10° W 00:09:26 20° W 00:09:26 20° W visible
19 May -3.8 20:07:00 10° WSW 20:10:22 73° SSE 20:13:44 10° ENE visible
19 May -3.5 21:43:53 10° W 21:47:15 70° N 21:50:20 12° E visible
19 May -3.2 23:20:45 10° WNW 23:23:17 45° W 23:23:17 45° W visible
20 May -3.5 20:56:24 10° W 20:59:46 71° N 21:03:09 10° E visible
20 May -3.9 22:33:17 10° WNW 22:36:41 84° SSW 22:37:12 61° ESE visible
21 May -3.6 20:08:54 10° W 20:12:17 78° N 20:15:40 10° ENE visible
21 May -3.8 21:45:50 10° WNW 21:49:13 82° NNE 21:51:10 23° E visible
21 May -1.9 23:22:45 10° W 23:24:06 20° W 23:24:06 20° W visible
22 May -3.6 20:58:21 10° W 21:01:44 73° N 21:05:07 10° E visible
22 May -3.3 22:35:14 10° W 22:38:06 46° SW 22:38:06 46° SW visible
